Retour au catalogue

YUNYAO-1 46

ActifScienceSSO
NORAD 63347·PAYLOAD·🇨🇳 China

Lancé Mar 21, 2025 depuis Jiuquan Satellite Launch Center

Loading…

Prochains Passages (prochaines 24 heures)

TLE

FraisSource: Space-Track

Époque: Sep 14, 2026, 14:55 UTC

1 63347U 25059D   26257.62171738  .00002155  00000-0  13151-3 0  9998
2 63347  97.6151  78.6021 0011229 190.6422 169.4572 15.11362944 81804

Suivez YUNYAO-1 46 en temps réel avec AllMySat

Download on the App Store